THORAD AGENA D DEB, 4998

Orbit data source: Space-Track

THORAD AGENA D DEB, 4998 is space debris in SSO originally from a launch on Wed, 08 Apr 1970 UTC launched from the Air Force Western Test Range (AFWTR). Debris objects in space refer to the collection of defunct objects orbiting the Earth. Examples of debris include non-operational satellites, rocket bodies, and fragments generated from explosions, collisions, or faulty payload assembly.

Loading next visibility...
Identifier
4998, 1970-025HU
Orbit
SSO
Country
Flag of USUS
Related business
Manufacturer
Unknown
Mission
Spacecraft
Bus & Motor
Unknown
Mass
Unknown
Launch date (UTC)
1970-04-08 (56 years ago)
Launch vehicle
Unknown
Launch site
Air Force Western Test Range (AFWTR)
Object type
Payload
Rocket body
Debris
Shape & HBR
Unknown shape, 0.1 m
Radar Cross Section
Small (<0.1 m²)

Expand to show TLE details & history
Last TLE update: 17 hours ago

TLE from 17 hours ago
0 THORAD AGENA D DEB
1 04998U 70025HU  26034.92357101  .00000005  00000-0  78890-4 0  9998
2 04998 100.1792  23.7235 0010104  49.4639 339.3573 13.53070816755223
Epoch: 2026-02-03T22:09Z
TLE epoch observation values (Epoch: 2026-02-03T22:09:56.535Z)
Latitude
28.3302°
Longitude
-88.38594°
Altitude
1,057.315 km
Speed
7.329 km/s
True Right ascension
01h 12m 47s
True Declination
28° 11' 33"
Sunlit
Object was in daylight at epoch
Visualization orbit readout
Latitude
Unknown
Longitude
Unknown
Altitude
Unknown
Speed
Unknown
Apparent Right ascension
Unknown
Apparent Declination
Unknown
Sunlit
N/A
Visualization observer readout
Local Sidereal Time
16:47:47
Azimuth
Unknown
Elevation
Unknown
Doppler factor
Unknown
Orbital elements
Apogee altitude
1,065.818 km
Perigee altitude
1,050.79 km
Semi-major axis
7,436.441 km
Eccentricity
0.00101
Inclination
100.1792°
RAAN
23.7235°
Arg. of periapsis
49.4639°
True anomaly
339.31643°
Mean anomaly
339.3573°
Eccentric anomaly
339.33687°
Mean motion
3.38451 °/min
Orbital period
106.37 mins
BSTAR
0.00007889
Loading maneuver chart data...
Computing Atmospheric mass density...

Documentation

Showing up to 5 results
|